Temp
12 12 12 12 12 12 13 13 13 13 13 13 14 14 15 15 15 16 16 16 16 16 16 16 16 16 16 16 16 16 16 15 15 15 15 15 15 16 15 15 15 15
12 12 12 12 12 12 12 12 12 12 12 13 13 13 14 14 15 15 15 15 16 16 16 16 16 16 15 15 15 15 15 15 15 15 15 15 15 15 15 15 15 15
12 12 12 12 12 12 12 12 12 11 12 12 13 13 13 13 14 14 15 15 15 15 15 15 15 15 15 15 15 15 15 15 15 15 14 14 15 15 15 15 15 15
12 12 12 12 11 11 11 11 11 11 11 11 12 12 12 13 13 13 14 14 14 14 14 14 14 14 15 15 15 15 15 15 15 15 14 14 14 14 15 15 15 15
12 12 12 12 11 11 11 11 11 10 10 10 11 11 12 12 12 12 13 13 14 14 14 13 13 14 14 14 14 14 14 14 14 14 14 14 14 14 14 15 15 15
12 12 12 11 11 11 11 11 10 10 10 9 10 10 10 11 11 11 11 12 12 13 13 13 13 14 14 14 14 14 14 14 14 14 14 14 14 14 14 14 14 14
12 12 12 11 11 11 11 10 10 9 9 9 9 9 9 10 10 10 10 10 11 11 11 12 12 13 13 13 14 14 14 14 14 14 14 14 14 14 14 14 14 14
12 12 11 11 11 11 10 10 9 9 8 8 8 8 9 9 9 9 9 9 9 9 10 10 11 11 12 12 13 13 14 14 14 14 14 14 14 14 14 14 14 14
12 11 11 11 10 10 10 10 9 9 8 8 8 8 8 8 8 8 8 9 9 8 9 9 10 10 11 11 12 12 13 14 14 14 14 14 14 14 14 14 14 14
11 11 11 10 10 10 10 9 9 9 8 8 8 7 7 7 7 7 7 8 8 7 7 8 9 9 10 10 10 11 12 13 13 13 14 14 14 14 14 14 14 14
10 10 10 10 10 10 9 9 9 9 8 8 8 7 7 7 7 6 6 7 7 7 7 8 8 8 9 9 10 10 11 12 12 13 13 13 14 14 14 14 14 14
10 10 10 10 9 9 9 9 9 9 9 8 8 8 7 7 6 6 6 6 6 6 6 6 7 7 8 8 9 9 10 11 12 12 13 13 14 14 14 14 14 14
10 10 9 9 9 9 9 9 9 9 9 8 8 8 7 7 6 6 6 5 5 5 5 5 6 7 7 6 7 8 9 10 11 12 12 13 13 14 14 14 14 14
10 9 9 9 9 9 9 9 9 9 9 8 8 8 7 7 6 6 6 5 5 5 4 4 4 5 5 5 6 7 9 10 11 11 12 12 13 14 14 14 14 14
10 9 9 9 9 9 9 8 8 8 8 8 8 8 8 7 6 6 5 5 4 4 4 3 3 3 3 4 5 6 8 10 11 11 12 12 12 13 14 14 14 14
10 10 9 9 9 9 9 8 8 8 8 8 8 8 7 7 7 6 5 5 4 4 4 3 2 2 3 4 5 6 8 10 11 11 12 12 11 12 13 14 14 14
10 10 10 9 9 9 9 9 8 8 8 8 7 7 7 7 7 6 5 5 4 4 3 3 2 2 3 4 6 6 7 9 10 10 11 11 11 12 12 13 13 14
10 10 10 9 9 9 9 9 8 8 8 7 7 7 7 7 6 6 5 5 4 4 3 3 2 2 3 4 6 7 7 8 8 9 10 10 11 11 12 13 13 14
10 10 10 9 9 9 9 9 8 8 8 7 7 7 7 6 6 6 5 4 4 3 3 3 2 3 3 3 5 6 7 7 7 8 9 9 10 11 11 12 13 13
10 10 9 9 9 9 8 8 8 8 8 7 7 7 7 6 6 6 5 4 4 3 3 3 3 3 3 3 4 5 6 6 6 6 7 8 8 9 9 10 11 12
9 9 9 9 9 8 8 8 8 8 8 8 7 7 7 6 6 6 5 4 4 4 3 3 3 3 3 3 3 4 5 5 5 5 5 6 7 7 7 8 8 10
9 9 9 9 8 8 8 8 8 8 8 8 7 7 7 6 6 6 5 5 4 4 3 3 2 3 3 3 3 3 3 3 4 4 4 4 4 5 6 6 6 7
9 9 9 9 8 8 8 8 7 7 7 8 7 7 7 6 6 6 5 5 4 4 3 3 3 3 3 3 3 3 3 2 2 2 3 3 3 3 4 5 5 5
9 9 9 9 8 8 8 8 7 7 7 7 7 7 7 6 6 6 5 5 5 4 4 3 3 3 3 3 3 3 3 2 2 2 2 2 2 2 3 3 4 4
9 9 9 9 8 8 8 8 7 7 7 7 7 7 6 6 6 6 5 5 5 4 4 4 3 3 3 3 3 3 3 2 2 2 2 2 2 2 2 3 3 4
9 9 9 9 8 8 8 8 7 7 7 7 7 6 6 6 6 6 5 5 5 4 4 4 3 3 3 3 3 3 3 3 3 2 2 2 2 2 2 2 3 3
Height
829 828 827 827 826 824 823 822 821 820 819 817 815 814 813 811 811 811 810 808 807 806 805 803 801 800 799 797 795 794 793 792 791 791 790 789 789 788 788 788 787 788
829 829 828 828 827 826 825 824 822 821 819 818 816 815 813 812 811 810 809 807 805 804 802 801 799 798 797 795 793 791 789 788 788 788 789 787 786 785 784 785 785 786
830 830 829 828 828 827 826 824 823 822 820 818 816 815 813 812 811 809 808 806 804 802 801 799 797 796 794 793 791 788 787 785 784 785 786 785 783 782 781 781 782 783
830 830 829 829 828 827 826 825 824 822 820 818 816 815 814 813 811 809 807 805 803 801 799 797 795 793 792 790 788 786 784 782 782 782 782 781 780 780 778 778 779 780
831 830 829 829 828 827 826 825 824 822 820 819 817 816 814 813 811 809 807 805 802 800 797 795 793 791 789 787 785 783 781 780 779 779 779 777 777 778 777 777 777 777
831 830 830 829 828 827 826 825 824 823 820 819 818 816 814 812 810 808 806 804 802 799 796 793 790 788 786 785 783 781 779 778 777 777 776 775 775 776 775 776 776 776
832 831 830 829 828 827 826 825 824 823 821 819 817 816 814 812 810 808 807 805 802 800 796 792 789 787 785 783 781 779 777 776 775 774 774 774 774 774 774 774 775 775
833 832 831 829 828 827 827 826 825 823 822 820 818 816 814 812 811 809 807 805 803 801 797 793 789 787 784 781 779 778 776 775 774 773 773 773 774 774 773 773 773 774
835 833 832 830 829 828 827 826 826 824 823 821 819 817 815 813 811 810 808 806 804 801 797 793 790 787 785 782 779 777 775 774 773 772 771 772 772 772 772 772 772 772
835 834 832 831 830 829 828 828 827 826 824 822 820 818 816 814 812 810 808 806 804 802 798 795 792 789 786 783 780 777 775 774 773 772 771 770 771 770 770 771 770 769
836 835 833 832 831 831 830 829 828 827 825 824 822 820 817 815 813 811 809 807 805 803 800 796 793 790 787 784 781 779 776 774 772 772 771 770 769 768 768 769 769 767
837 836 834 834 833 832 831 830 829 828 826 825 823 821 819 817 814 812 811 809 807 805 802 798 795 792 789 785 782 779 776 774 772 771 770 768 767 766 766 767 766 765
838 837 836 835 835 834 833 831 830 828 827 826 824 822 820 819 816 814 813 811 808 806 803 800 796 793 790 787 783 780 777 774 772 770 768 767 766 765 765 764 763 763
839 838 837 837 836 835 834 832 831 829 828 827 825 823 822 820 818 816 814 812 810 807 805 802 797 793 790 787 783 780 777 774 772 770 768 766 765 764 764 763 762 762
840 839 838 837 837 835 834 833 832 830 829 828 826 825 823 821 819 818 815 813 811 809 806 802 799 797 795 791 786 781 777 774 772 770 768 766 764 763 763 761 761 761
841 840 839 838 837 836 835 834 832 831 830 829 827 826 824 822 821 819 816 814 812 810 807 804 802 800 798 794 788 783 778 774 772 769 768 766 764 763 761 760 759 759
842 841 840 839 838 837 836 834 833 832 830 829 828 826 825 824 822 820 818 816 814 811 809 807 805 802 798 793 788 783 778 774 772 770 768 766 765 763 761 759 759 757
843 842 841 840 839 838 837 836 834 833 831 830 829 828 827 825 824 822 820 818 816 813 811 809 806 803 798 793 788 783 779 775 772 770 769 767 765 763 760 759 758 756
845 844 843 842 841 840 839 838 836 834 833 832 830 829 828 827 826 824 822 820 817 815 813 811 808 804 798 794 789 784 780 776 773 772 770 769 766 763 761 758 756 754
847 846 845 844 843 842 841 839 837 836 835 834 832 831 829 828 827 825 824 822 819 817 815 813 809 806 800 795 791 786 781 778 775 773 772 770 768 765 762 760 757 755
848 848 847 846 845 844 843 841 840 838 837 836 834 833 831 830 829 827 825 824 822 819 817 814 812 808 803 798 793 788 784 780 777 775 773 772 769 767 764 762 758 756
850 849 849 848 847 846 844 843 842 840 839 838 836 835 834 832 830 829 827 825 823 821 818 816 814 810 805 800 796 791 787 783 780 777 775 773 771 769 766 763 760 757
852 851 850 849 848 847 846 845 844 842 841 839 838 837 835 833 832 831 829 827 825 822 820 818 815 812 808 803 799 794 790 786 783 781 778 776 774 771 768 766 763 761
854 853 852 850 849 848 847 847 846 844 843 841 840 839 837 836 834 833 831 829 827 824 822 820 817 814 810 806 802 798 794 790 787 784 782 779 776 774 771 768 766 763
854 854 853 851 851 850 849 848 847 846 845 844 842 841 839 837 835 834 833 831 829 827 824 821 819 816 812 809 805 801 797 794 791 787 784 781 779 776 773 770 767 764
855 854 854 853 852 851 851 850 849 847 846 845 843 842 841 839 837 836 835 833 831 828 826 823 820 817 814 811 807 804 800 797 793 790 787 785 782 779 775 772 769 765
Wind_Speed
17 18 19 19 20 21 21 22 23 23 23 23 23 24 24 24 24 24 25 24 23 22 22 22 22 22 23 24 25 25 25 26 25 24 25 26 28 28 27 27 27 26
17 18 19 19 19 19 19 20 22 22 22 22 22 23 23 23 24 24 25 26 25 24 23 24 24 23 23 24 26 26 26 25 26 26 24 25 26 26 26 25 25 25
19 19 18 19 18 18 18 19 21 22 22 21 21 23 24 24 24 24 25 25 25 24 24 24 24 24 24 25 26 27 27 26 27 26 25 25 25 25 24 22 23 24
20 19 19 19 18 18 19 19 20 23 23 21 21 22 23 24 25 25 25 24 24 26 27 26 26 26 25 25 26 27 28 27 26 24 24 25 26 25 24 21 22 23
20 20 20 20 19 19 20 19 20 24 24 21 20 21 21 23 24 25 26 27 26 28 29 28 26 25 25 25 25 26 26 26 25 24 23 23 24 24 22 21 21 22
20 21 22 21 20 20 21 20 20 24 25 21 20 21 21 22 23 25 28 29 29 30 30 29 27 25 24 23 23 23 24 24 25 23 23 23 23 23 21 20 20 21
21 22 22 22 22 22 21 22 23 25 26 23 22 22 22 22 23 25 27 29 30 32 32 29 26 24 23 21 20 22 22 22 22 20 20 18 17 18 18 18 18 20
22 22 23 23 24 24 23 24 24 26 28 27 25 24 23 24 24 24 26 27 29 33 35 33 30 27 25 22 20 20 21 20 18 16 16 14 13 14 16 16 16 18
24 24 24 24 26 25 25 25 25 26 29 30 29 26 25 24 24 24 26 26 26 33 38 37 35 33 29 27 24 21 19 18 16 13 13 13 12 12 13 14 14 15
27 27 26 26 27 27 26 26 26 26 29 32 32 31 29 27 26 26 29 28 25 30 39 40 38 38 34 31 29 25 21 18 15 13 12 12 10 10 11 11 13 14
27 28 28 27 27 27 26 26 26 25 27 31 32 33 33 32 33 31 30 29 25 27 38 43 41 40 39 35 32 29 25 20 17 15 13 13 11 10 10 10 13 14
27 28 28 27 26 26 26 26 26 25 25 29 30 32 33 34 37 37 32 31 28 25 35 45 44 42 41 39 36 33 28 24 21 18 15 13 11 10 10 10 13 15
27 28 27 26 25 25 25 25 26 25 25 27 28 30 32 33 35 36 35 36 33 27 32 44 47 45 44 43 39 35 31 28 25 21 17 14 11 10 10 11 13 15
26 26 26 26 26 25 26 25 26 26 25 26 27 28 31 32 33 33 34 37 36 30 31 43 50 48 46 45 41 36 32 28 26 24 20 16 12 10 9 10 12 13
25 25 25 26 27 27 27 27 27 27 27 28 29 28 28 31 33 33 34 36 36 32 31 41 49 46 44 45 42 36 31 27 25 24 20 16 14 12 10 8 9 10
22 24 25 25 27 27 27 27 28 28 28 29 30 30 28 30 32 34 35 36 35 33 32 39 46 45 44 45 42 34 29 25 23 21 19 17 16 15 14 11 8 8
22 23 24 24 25 27 27 27 27 27 29 30 31 32 30 29 31 32 34 36 36 34 33 36 43 47 47 48 44 35 28 24 23 22 20 20 20 19 18 14 9 7
26 25 27 26 25 26 28 27 26 25 28 30 31 33 32 30 30 30 32 34 35 34 33 35 42 48 50 51 47 39 30 25 24 24 23 23 23 22 20 16 12 12
28 27 29 31 30 29 30 30 29 25 25 28 31 32 32 31 30 30 31 33 34 33 32 34 41 48 50 52 50 44 35 29 26 26 25 24 25 24 20 15 12 13
28 27 28 31 31 31 31 33 33 29 25 25 29 32 32 31 30 30 30 32 33 33 32 33 39 46 49 51 52 48 42 35 30 28 26 26 26 25 22 19 16 13
28 27 28 29 30 31 32 32 34 33 29 25 27 31 31 30 29 28 29 30 32 33 32 33 37 43 46 48 50 49 45 41 37 32 29 27 26 25 24 23 21 18
28 27 27 27 28 30 32 32 32 33 32 27 25 28 30 30 28 27 27 29 31 33 33 34 36 41 43 44 47 48 46 43 41 36 32 30 29 28 27 26 25 24
27 27 26 26 27 28 31 32 31 31 32 30 26 27 30 30 26 25 26 28 30 31 33 34 36 40 42 41 43 45 43 41 39 36 34 33 31 30 29 28 27 27
25 26 25 25 26 26 27 31 31 30 30 30 28 27 30 29 24 22 25 28 30 30 30 32 34 38 41 41 41 42 41 39 37 34 32 33 33 31 31 31 29 27
23 24 24 22 22 23 25 27 29 28 28 29 28 28 30 30 26 23 24 27 28 29 30 31 32 36 38 39 40 41 39 37 36 34 32 32 32 31 32 33 31 30
20 21 22 20 19 21 24 25 26 26 26 27 27 27 29 31 28 24 25 27 27 28 30 31 32 34 36 36 37 39 39 37 36 34 31 30 30 30 31 32 32 32
Wind_Direction
26 22 20 17 14 6 359 357 358 356 353 350 349 348 348 349 350 348 345 342 336 330 325 319 312 310 310 307 304 299 290 281 275 269 264 258 253 252 247 239 234 230
33 28 24 21 17 11 5 2 0 357 353 351 349 350 350 349 349 348 345 342 340 337 332 325 318 313 311 309 305 299 294 287 280 277 267 254 250 251 249 241 234 230
36 33 28 24 19 16 12 7 4 2 358 355 354 353 353 352 353 353 348 344 342 339 334 329 322 315 310 309 305 298 293 289 285 281 268 256 251 249 249 243 234 229
37 35 31 28 25 20 16 11 8 5 2 360 358 357 357 358 0 1 357 352 347 341 334 327 320 314 310 307 304 300 294 288 287 281 267 258 253 249 247 243 235 232
39 39 34 31 29 23 19 17 12 8 6 5 2 359 359 1 3 4 3 0 353 346 340 334 325 316 311 308 305 301 294 289 288 281 266 257 256 252 246 238 234 234
43 42 37 34 32 27 24 23 17 11 11 10 5 3 4 3 3 5 6 6 4 359 354 347 338 327 319 314 310 307 299 293 291 283 270 262 259 253 247 240 236 236
46 43 40 38 33 30 28 26 21 17 15 13 10 11 10 7 7 9 11 14 15 14 12 7 360 352 342 333 325 322 313 301 293 284 273 264 256 251 248 246 243 240
44 42 43 41 36 33 31 27 24 22 21 18 16 14 11 10 10 10 13 18 17 15 17 17 16 14 8 1 353 343 331 317 303 289 274 260 249 246 241 237 239 241
40 40 42 42 39 36 32 29 26 25 25 24 22 17 13 12 11 11 16 20 15 12 16 16 14 15 13 11 10 3 351 335 317 299 284 266 251 249 244 237 235 239
39 39 39 40 40 36 32 29 27 27 26 26 27 24 21 19 18 17 20 22 17 13 16 17 14 13 12 10 10 8 4 354 337 321 305 289 271 264 260 252 246 245
41 39 38 38 37 35 32 30 28 28 27 26 27 27 27 28 29 26 22 22 20 13 16 19 17 13 11 10 8 5 3 359 352 343 328 312 299 282 269 260 259 259
42 40 38 37 35 33 32 30 29 29 27 26 27 28 28 29 32 32 26 23 23 16 16 20 19 15 12 9 7 5 1 358 354 349 340 331 321 304 288 271 264 264
45 41 38 37 35 33 32 31 30 29 27 25 25 27 28 27 28 30 28 26 26 22 18 19 19 17 13 9 6 4 1 357 354 349 343 341 336 322 305 289 277 272
48 44 43 40 37 34 32 30 29 28 27 25 24 25 27 27 27 26 25 25 25 24 20 18 19 17 12 8 5 2 360 357 355 351 345 339 337 333 319 301 290 280
51 48 48 47 43 40 37 34 31 29 27 25 24 24 24 26 27 26 24 23 22 21 19 17 17 15 11 9 6 1 359 358 356 353 349 342 335 333 332 323 307 292
49 48 49 48 46 43 40 38 36 34 32 29 26 24 22 23 25 25 25 23 20 20 19 16 15 12 11 12 11 6 2 1 359 357 356 352 343 333 331 332 330 319
41 42 43 44 43 41 39 37 37 37 37 35 31 28 25 24 24 25 24 22 21 21 19 16 14 12 12 14 14 12 9 7 8 6 4 2 354 343 336 330 321 321
40 41 41 39 37 35 34 32 33 37 39 37 34 32 30 27 25 25 24 21 21 21 20 17 13 13 14 15 16 16 15 15 16 13 8 5 359 350 343 331 316 317
41 44 44 41 38 35 33 29 28 32 39 38 35 33 32 30 28 27 25 23 22 22 21 17 14 14 15 15 16 18 20 21 22 17 11 9 7 4 2 353 336 327
43 46 47 45 42 39 35 31 28 28 33 38 37 33 32 31 29 27 27 26 25 24 22 19 16 15 15 15 16 19 22 23 24 21 15 14 16 16 15 13 3 349
45 48 49 47 46 43 39 35 31 28 27 31 36 36 33 31 29 27 26 26 25 23 21 18 16 15 16 16 15 17 21 23 24 23 17 14 15 14 12 13 9 1
48 49 50 48 47 46 42 37 33 30 26 25 32 36 33 30 29 27 24 23 23 22 21 18 17 17 18 18 17 17 19 20 22 22 17 13 13 11 12 14 10 5
52 51 50 48 48 49 46 40 35 32 28 26 28 31 29 25 26 28 25 21 21 21 21 19 18 19 20 20 19 18 19 19 19 19 16 15 14 11 13 15 13 10
56 53 51 50 51 52 48 43 39 35 32 31 30 29 25 21 22 28 26 22 20 20 19 18 17 18 20 22 21 20 20 19 18 16 15 15 14 12 14 16 15 14
58 53 50 51 55 55 48 43 42 40 37 36 34 31 25 21 22 27 27 22 19 18 16 14 12 13 17 21 22 21 20 20 19 17 14 13 12 12 13 16 16 16
57 54 49 48 57 58 50 45 44 42 40 39 38 34 29 27 28 30 28 22 17 15 14 12 9 8 12 19 22 22 21 20 21 20 16 12 11 11 12 14 16 17